Content
SEND FEEDBACK

Daily
Averages
Monthly
Summary
United States of America

GRANBY, COLORADO


Home > North America > United States > Colorado
Elevation: 8210 feet     Latitude: 40 06N     Longitude: 105 56W

WEATHER
 
SELECT A DAY
Number of Records: 262,818;   Date Range: 8/13/03 - 9/20/14
 
SHARE

PRINT THIS DATA

[ ← Previous Day ]
WEATHER ALMANAC - SEPTEMBER 2, 2014
[ Next Day → ]
[ °C ]   °F
Weather ElementAverageHighLow
Temperature55.8 °F80.6 °F (2:57 pm)32 °F (6:57 am)
Dewpoint28.7 °F33.8 °F (9:17 am)17.6 °F (4:57 pm)
Humidity47.5 %93 % (4:56 am)10 % (4:57 pm)
Barometer30.24 in30.33 in (8:17 am)30.14 in (5:17 pm)
Wind Speed3.8 mph17.3 mph (2:57 pm)
Wind Gust23 mph (2:57 pm)
Weather ElementAverage
Visibility10 mi
Wind DirectionESE (102.7 °)

Weather ElementTotal
Precipitation---
Heating Degree Days8.7 (Base 65)
Growing Degree Days6.3 (Base 50)
Averaged from 70 records on September 2, 2014
WEATHER CONDITIONS BREAKOUT
WIND DIRECTION BREAKOUT
WEATHER BY HOUR - SEPTEMBER 2, 2014
[ °C ]   °F
Local TimeTemperatureDewpointHumidityBarometerVisibilityWind DirectionWind SpeedGust SpeedPrecipitationEventsConditions
12:35 AM42.8 °F32.0 °F66 %30.29 in10.0 miCalmClear
12:56 AM41.0 °F32.0 °F70 %30.29 in10.0 miCalmClear
1:16 AM37.4 °F32.0 °F81 %30.29 in10.0 miCalmClear
1:37 AM41.0 °F32.0 °F70 %30.29 in10.0 miCalmClear
1:57 AM37.4 °F32.0 °F81 %30.29 in10.0 miCalmClear
2:17 AM37.4 °F32.0 °F81 %30.29 in10.0 miCalmClear
2:37 AM35.6 °F32.0 °F87 %30.29 in10.0 miCalmClear
2:57 AM35.6 °F32.0 °F87 %30.29 in10.0 miCalmClear
3:17 AM35.6 °F32.0 °F87 %30.29 in10.0 miCalmClear
3:37 AM35.6 °F32.0 °F87 %30.29 in10.0 miCalmClear
3:57 AM35.6 °F32.0 °F87 %30.29 in10.0 miCalmClear
4:17 AM35.6 °F32.0 °F87 %30.29 in10.0 miCalmClear
4:37 AM35.6 °F32.0 °F87 %30.29 in10.0 miCalmClear
4:56 AM33.8 °F32.0 °F93 %30.29 in10.0 miCalmClear
5:17 AM33.8 °F32.0 °F93 %30.29 in10.0 miCalmClear
5:37 AM33.8 °F30.2 °F87 %30.29 in10.0 miCalmClear
5:57 AM33.8 °F32.0 °F93 %30.30 in10.0 miCalmClear
6:16 AM33.8 °F32.0 °F93 %30.30 in10.0 miCalmClear
6:37 AM33.8 °F32.0 °F93 %30.31 in10.0 miCalmClear
6:57 AM32.0 °F30.2 °F93 %30.32 in10.0 miCalmClear
7:17 AM33.8 °F32.0 °F93 %30.32 in10.0 miCalmClear
7:37 AM35.6 °F32.0 °F87 %30.32 in10.0 miCalmClear
7:57 AM37.4 °F32.0 °F81 %30.32 in10.0 miCalmClear
8:17 AM39.2 °F32.0 °F75 %30.33 in10.0 miCalmClear
8:37 AM41.0 °F32.0 °F70 %30.32 in10.0 miCalmClear
8:57 AM42.8 °F32.0 °F66 %30.32 in10.0 miCalmClear
9:17 AM50.0 °F33.8 °F54 %30.32 in10.0 miCalmClear
9:37 AM50.0 °F32.0 °F50 %30.31 in10.0 miCalmClear
9:57 AM53.6 °F33.8 °F47 %30.31 in10.0 miCalmClear
10:16 AM53.6 °F32.0 °F44 %30.30 in10.0 miCalmClear
10:37 AM55.4 °F33.8 °F44 %30.30 in10.0 miCalmClear
10:57 AM59.0 °F32.0 °F36 %30.29 in10.0 miCalmClear
11:17 AM62.6 °F32.0 °F32 %30.28 in10.0 miCalmClear
11:36 AM64.4 °F32.0 °F30 %30.27 in10.0 miCalmClear
11:57 AM69.8 °F32.0 °F25 %30.26 in10.0 miNNW (330°)3.5 mphClear
12:17 PM71.6 °F32.0 °F23 %30.25 in10.0 miNorth (360°)5.8 mphClear
12:36 PM73.4 °F30.2 °F20 %30.24 in10.0 miNorth (360°)4.6 mphClear
12:57 PM77.0 °F26.6 °F16 %30.22 in10.0 miNW (320°)4.6 mphScattered Clouds
1:16 PM78.8 °F26.6 °F15 %30.22 in10.0 miWNW (290°)11.5 mph17.3 mphScattered Clouds
1:37 PM78.8 °F26.6 °F15 %30.21 in10.0 miWest (270°)12.7 mph21.9 mphClear
1:56 PM78.8 °F23.0 °F13 %30.21 in10.0 miWSW (250°)10.4 mph18.4 mphScattered Clouds
2:17 PM78.8 °F23.0 °F13 %30.20 in10.0 miNW (320°)6.9 mph17.3 mphMostly Cloudy
2:37 PM78.8 °F23.0 °F13 %30.19 in10.0 miWest (280°)6.9 mph18.4 mphMostly Cloudy
2:57 PM80.6 °F23.0 °F12 %30.18 in10.0 miSW (230°)17.3 mph23.0 mphMostly Cloudy
3:17 PM77.0 °F23.0 °F13 %30.17 in10.0 miWest (270°)10.4 mph17.3 mphScattered Clouds
3:37 PM80.6 °F23.0 °F12 %30.16 in10.0 miWest (270°)12.7 mph17.3 mphMostly Cloudy
3:57 PM78.8 °F24.8 °F14 %30.16 in10.0 miWest (260°)8.1 mphMostly Cloudy
4:17 PM80.6 °F21.2 °F11 %30.16 in10.0 miWSW (250°)11.5 mph16.1 mphMostly Cloudy
4:57 PM80.6 °F17.6 °F10 %30.15 in10.0 miWSW (240°)16.1 mph23.0 mphScattered Clouds
5:17 PM80.6 °F17.6 °F10 %30.14 in10.0 miSW (220°)17.3 mph23.0 mphClear
5:37 PM78.8 °F19.4 °F11 %30.14 in10.0 miWSW (240°)17.3 mph23.0 mphClear
5:57 PM78.8 °F21.2 °F12 %30.14 in10.0 miWSW (250°)12.7 mphScattered Clouds
6:17 PM77.0 °F19.4 °F12 %30.14 in10.0 miWSW (240°)12.7 mph18.4 mphScattered Clouds
6:37 PM77.0 °F19.4 °F12 %30.15 in10.0 miWSW (240°)13.8 mph19.6 mphScattered Clouds
6:57 PM73.4 °F19.4 °F13 %30.15 in10.0 miWSW (250°)11.5 mph17.3 mphClear
7:17 PM73.4 °F21.2 °F14 %30.16 in10.0 miWSW (240°)9.2 mph18.4 mphClear
7:37 PM69.8 °F23.0 °F17 %30.16 in10.0 miWSW (250°)8.1 mphClear
7:56 PM69.8 °F23.0 °F17 %30.16 in10.0 miWSW (240°)6.9 mphClear
8:17 PM66.2 °F24.8 °F21 %30.16 in10.0 miWNW (300°)3.5 mphScattered Clouds
8:36 PM62.6 °F26.6 °F26 %30.17 in10.0 miCalmScattered Clouds
8:57 PM60.8 °F26.6 °F27 %30.17 in10.0 miCalmScattered Clouds
9:17 PM60.8 °F26.6 °F27 %30.17 in10.0 miWNW (300°)3.5 mphScattered Clouds
9:37 PM59.0 °F28.4 °F31 %30.17 in10.0 miCalmScattered Clouds
9:56 PM55.4 °F32.0 °F41 %30.17 in10.0 miCalmScattered Clouds
10:17 PM53.6 °F32.0 °F44 %30.17 in10.0 miCalmClear
10:37 PM50.0 °F32.0 °F50 %30.17 in10.0 miCalmClear
10:57 PM50.0 °F32.0 °F50 %30.18 in10.0 miCalmClear
11:16 PM51.8 °F32.0 °F47 %30.18 in10.0 miESE (120°)4.6 mphClear
11:37 PM50.0 °F32.0 °F50 %30.18 in10.0 miCalmClear
11:56 PM46.4 °F32.0 °F57 %30.18 in10.0 miCalmClear
Hourly data recorded from K20V, located miles away from Granby, Colorado







STORIES FROM OUR PARTNERS